CW6151 Weather Reports


time (UTC)temp
F
wind
direction
speed
knots
gust
knots
rain 1hr
in
rain 24hr
in
rain mn
in
humidity
%
barometer
mb
20260505041508 57 190 2.6 8.7 0.00 0.00 0.00 61 1006.1
20260505041006 58 219 0.9 6.1 0.00 0.00 0.00 61 1006.1
20260505040508 58 224 1.7 6.1 0.00 0.00 0.00 60 1006.0
20260505040006 58 210 0.0 7.0 0.00 0.00 0.00 59 1006.0
20260505035505 58 215 0.9 7.0 0.00 0.00 0.00 59 1006.0
20260505035005 58 207 1.7 11.3 0.00 0.00 0.00 58 1006.0
20260505034505 58 196 0.0 7.8 0.00 0.00 0.00 59 1006.0
20260505034006 59 205 0.9 7.8 0.00 0.00 0.00 58 1006.0
20260505033504 59 178 1.7 7.8 0.00 0.00 0.00 58 1005.9
20260505033004 59 207 0.9 7.8 0.00 0.00 0.00 58 1005.9
20260505032506 59 207 0.9 8.7 0.00 0.00 0.00 57 1005.9
20260505032006 59 195 1.7 8.7 0.00 0.00 0.00 56 1005.9
20260505031503 60 216 0.9 7.0 0.00 0.00 0.00 56 1005.9
20260505031003 60 215 0.9 7.0 0.00 0.00 0.00 56 1005.9
20260505030503 60 184 2.6 7.0 0.00 0.00 0.00 55 1006.0
20260505030003 60 209 1.7 9.6 0.00 0.00 0.00 55 1006.0
20260505025505 60 182 1.7 9.6 0.00 0.00 0.00 55 1006.0
20260505025003 60 208 1.7 7.8 0.00 0.00 0.00 55 1005.9
20260505024503 60 208 0.9 6.1 0.00 0.00 0.00 54 1005.9
20260505024002 60 188 0.0 6.1 0.00 0.00 0.00 54 1005.9
20260505023502 60 209 1.7 6.1 0.00 0.00 0.00 54 1005.9
20260505023002 60 216 0.9 9.6 0.00 0.00 0.00 54 1005.9
20260505022502 61 227 1.7 9.6 0.00 0.00 0.00 53 1005.9
20260505022002 61 231 1.7 8.7 0.00 0.00 0.00 53 1005.9
20260505021501 61 200 1.7 8.7 0.00 0.00 0.00 52 1005.9
20260505021001 61 204 1.7 7.0 0.00 0.00 0.00 52 1005.9
20260505020501 62 201 0.0 9.6 0.00 0.00 0.00 52 1005.9
20260505020002 62 198 1.7 9.6 0.00 0.00 0.00 51 1005.9
20260505015501 62 209 0.9 8.7 0.00 0.00 0.00 51 1005.9
20260505015001 62 196 1.7 10.4 0.00 0.00 0.00 51 1005.6
20260505014503 62 190 0.9 8.7 0.00 0.00 0.00 50 1005.6
20260505014104 62 185 1.7 7.8 0.00 0.00 0.00 50 1005.6
20260505013600 63 196 0.0 10.4 0.00 0.00 0.00 50 1005.4
20260505013100 63 193 3.5 10.4 0.00 0.00 0.00 49 1005.4
20260505012600 63 194 0.9 9.6 0.00 0.00 0.00 49 1005.4
20260505012100 64 213 1.7 8.7 0.00 0.00 0.00 48 1005.0
20260505011600 64 205 2.6 11.3 0.00 0.00 0.00 48 1005.0
20260505011103 64 197 1.7 14.8 0.00 0.00 0.00 48 1005.0
20260505010559 64 188 4.3 14.8 0.00 0.00 0.00 48 1004.7
20260505010104 64 191 3.5 14.8 0.00 0.00 0.00 48 1004.7
20260505005604 64 194 0.9 10.4 0.00 0.00 0.00 47 1004.7
20260505005059 65 174 1.7 11.3 0.00 0.00 0.00 46 1004.3
20260505004559 65 237 2.6 13.9 0.00 0.00 0.00 46 1004.3
20260505004100 65 228 2.6 13.9 0.00 0.00 0.00 45 1004.3
20260505003557 65 192 2.6 10.4 0.00 0.00 0.00 45 1003.9
20260505003104 65 197 2.6 14.8 0.00 0.00 0.00 44 1003.9
20260505002557 66 217 3.5 18.2 0.00 0.00 0.00 44 1003.9
20260505002057 66 226 4.3 18.2 0.00 0.00 0.00 44 1003.4
20260505001558 66 216 3.5 14.8 0.00 0.00 0.00 44 1003.4
20260505001057 66 213 5.2 13.9 0.00 0.00 0.00 43 1003.4
20260505000557 66 205 5.2 13.0 0.00 0.00 0.00 43 1003.0
20260504235557 67 232 0.0 0.0 0.00 0.00 0.00 40 1003.0
20260504235057 67 212 0.0 3.5 0.00 0.00 0.00 39 1002.8
20260504234556 68 222 0.0 8.7 0.00 0.00 0.00 39 1002.8
20260504234055 68 212 0.0 6.1 0.00 0.00 0.00 39 1002.8
20260504233555 69 227 0.0 4.3 0.00 0.00 0.00 38 1002.7
20260504233058 69 228 0.0 7.0 0.00 0.00 0.00 37 1002.7
20260504232559 69 228 0.9 8.7 0.00 0.00 0.00 36 1002.7
20260504232055 70 211 0.9 10.4 0.00 0.00 0.00 36 1002.3
20260504231555 70 240 1.7 10.4 0.00 0.00 0.00 36 1002.3
20260504231054 70 242 2.6 9.6 0.00 0.00 0.00 35 1002.3
20260504230557 70 227 1.7 11.3 0.00 0.00 0.00 35 1002.2
20260504230055 71 196 4.3 11.3 0.00 0.00 0.00 35 1002.2
20260504225554 71 212 1.7 11.3 0.00 0.00 0.00 35 1002.2
20260504225054 71 232 2.6 11.3 0.00 0.00 0.00 34 1002.2
20260504224553 71 234 1.7 10.4 0.00 0.00 0.00 36 1002.2
20260504224056 71 236 0.0 9.6 0.00 0.00 0.00 35 1002.2
20260504223556 71 222 3.5 11.3 0.00 0.00 0.00 34 1002.2
20260504223107 71 227 1.7 11.3 0.00 0.00 0.00 34 1002.2
20260504222553 72 224 3.5 11.3 0.00 0.00 0.00 33 1002.2
20260504222052 72 246 0.9 11.3 0.00 0.00 0.00 32 1002.0
20260504221553 72 232 1.7 7.0 0.00 0.00 0.00 33 1002.0
20260504221052 72 227 0.0 7.0 0.00 0.00 0.00 34 1002.0
20260504220552 72 221 1.7 11.3 0.00 0.00 0.00 32 1002.0
20260504220052 73 217 4.3 13.9 0.00 0.00 0.00 32 1002.0
20260504215555 73 217 5.2 13.9 0.00 0.00 0.00 32 1002.0
20260504215051 73 223 0.0 11.3 0.00 0.00 0.00 33 1002.0
20260504214552 73 292 2.6 11.3 0.00 0.00 0.00 32 1002.0
20260504214152 73 200 6.1 12.2 0.00 0.00 0.00 31 1002.0
20260504213550 73 270 0.9 7.0 0.00 0.00 0.00 31 1002.0
20260504213050 74 221 0.0 9.6 0.00 0.00 0.00 32 1002.0
20260504212552 74 219 0.9 10.4 0.00 0.00 0.00 31 1002.0
20260504212050 74 269 2.6 13.0 0.00 0.00 0.00 30 1002.1
20260504211633 73 275 3.5 13.0 0.00 0.00 0.00 32 1002.1
20260504211049 73 258 0.9 9.6 0.00 0.00 0.00 32 1002.1
20260504210549 72 225 3.5 13.9 0.00 0.00 0.00 31 1002.2
20260504210052 72 248 2.6 13.9 0.00 0.00 0.00 32 1002.2
20260504205549 73 223 0.0 13.9 0.00 0.00 0.00 32 1002.2
20260504205048 73 252 4.3 13.9 0.00 0.00 0.00 31 1002.2
20260504204547 74 209 3.5 13.9 0.00 0.00 0.00 29 1002.2
20260504204047 74 213 2.6 13.9 0.00 0.00 0.00 30 1002.2
20260504203547 74 230 3.5 14.8 0.00 0.00 0.00 29 1002.1
20260504203047 74 227 1.7 17.4 0.00 0.00 0.00 30 1002.1
20260504202547 74 267 1.7 19.1 0.00 0.00 0.00 30 1002.1
20260504202046 74 180 5.2 15.6 0.00 0.00 0.00 29 1002.2
20260504201546 74 197 2.6 14.8 0.00 0.00 0.00 29 1002.2
20260504201045 74 243 1.7 17.4 0.00 0.00 0.00 29 1002.2
20260504200545 74 294 4.3 16.5 0.00 0.00 0.00 30 1002.3
20260504200045 74 223 6.1 13.9 0.00 0.00 0.00 29 1002.3
20260504195544 74 263 1.7 13.9 0.00 0.00 0.00 28 1002.3
20260504195044 74 270 1.7 16.5 0.00 0.00 0.00 30 1002.2
20260504194550 74 224 5.2 13.9 0.00 0.00 0.00 29 1002.2
20260504194043 74 243 1.7 10.4 0.00 0.00 0.00 29 1002.2
20260504193542 74 267 1.7 10.4 0.00 0.00 0.00 29 1002.3
20260504193042 73 218 0.9 15.6 0.00 0.00 0.00 33 1002.3
20260504192542 74 250 5.2 15.6 0.00 0.00 0.00 29 1002.3
20260504192042 74 269 3.5 13.0 0.00 0.00 0.00 29 1002.3
20260504191558 74 225 0.9 17.4 0.00 0.00 0.00 31 1002.3
20260504191042 74 275 4.3 17.4 0.00 0.00 0.00 29 1002.3
20260504190543 74 249 1.7 8.7 0.00 0.00 0.00 29 1002.4
20260504190045 74 236 0.9 7.8 0.00 0.00 0.00 32 1002.4
20260504185538 73 232 0.9 13.9 0.00 0.00 0.00 31 1002.4
20260504185038 73 238 5.2 17.4 0.00 0.00 0.00 30 1002.8
20260504184547 73 229 5.2 17.4 0.00 0.00 0.00 29 1002.8
20260504184036 73 270 2.6 16.5 0.00 0.00 0.00 30 1002.8
20260504183536 73 256 8.7 16.5 0.00 0.00 0.00 31 1002.7
20260504183035 73 224 3.5 15.6 0.00 0.00 0.00 32 1002.7
20260504182534 73 227 3.5 13.9 0.00 0.00 0.00 31 1002.7
20260504182034 72 230 3.5 13.9 0.00 0.00 0.00 31 1002.8
20260504181536 72 262 3.5 13.0 0.00 0.00 0.00 31 1002.8
20260504181033 72 207 5.2 16.5 0.00 0.00 0.00 31 1002.8
20260504180532 72 238 7.8 16.5 0.00 0.00 0.00 32 1002.8
20260504180033 71 286 1.7 16.5 0.00 0.00 0.00 33 1002.8
20260504175531 71 219 4.3 17.4 0.00 0.00 0.00 32 1002.8
20260504175031 71 237 6.1 19.1 0.00 0.00 0.00 31 1003.0
20260504174532 72 240 5.2 16.5 0.00 0.00 0.00 34 1003.0
20260504174029 71 250 7.8 16.5 0.00 0.00 0.00 34 1003.0
20260504173528 71 213 7.0 20.0 0.00 0.00 0.00 34 1003.2
20260504173028 71 196 5.2 16.5 0.00 0.00 0.00 33 1003.2
20260504172528 71 219 4.3 20.0 0.00 0.00 0.00 33 1003.2
20260504172028 71 243 6.1 20.0 0.00 0.00 0.00 34 1003.1
20260504171529 70 239 2.6 26.1 0.00 0.00 0.00 33 1003.1
20260504171028 71 243 9.6 26.1 0.00 0.00 0.00 32 1003.1
20260504170528 71 234 5.2 20.9 0.00 0.00 0.00 35 1003.2
20260504151013 66 238 1.7 10.4 0.00 0.00 0.00 38 1004.5
20260504150512 66 250 1.7 18.2 0.00 0.00 0.00 41 1004.7
20260504141006 64 249 4.3 15.6 0.00 0.00 0.00 42 1005.0
20260504140504 64 184 4.3 15.6 0.00 0.00 0.00 43 1004.9
20260504130550 59 271 0.0 11.3 0.00 0.00 0.00 49 1005.8
20260504110523 44 216 0.0 0.0 0.00 0.00 0.00 78 1006.6
20260504100519 41 218 0.0 0.0 0.00 0.00 0.00 76 1006.4
20260504081514 46 219 0.0 1.7 0.00 0.00 0.00 66 1006.4
20260504081015 46 219 0.0 1.7 0.00 0.00 0.00 65 1006.4
20260504080514 46 219 0.0 2.6 0.00 0.00 0.00 64 1006.3
20260504070106 40 241 0.0 1.7 0.00 0.00 0.00 78 1006.2
20260504050541 35 275 0.0 0.0 0.00 0.00 0.00 80 1006.2
20260504045539 35 275 0.0 0.0 0.00 0.00 0.00 80 1006.2
20260504045038 35 275 0.0 0.0 0.00 0.00 0.00 80 1006.2
20260504044538 35 275 0.0 0.0 0.00 0.00 0.00 80 1006.2
20260504044038 35 275 0.0 0.0 0.00 0.00 0.00 80 1006.2
20260504043539 35 275 0.0 0.0 0.00 0.00 0.00 80 1006.1
20260504043041 35 275 0.0 0.0 0.00 0.00 0.00 79 1006.1
20260504042538 35 275 0.0 0.0 0.00 0.00 0.00 79 1006.1
20260504042039 35 275 0.0 0.0 0.00 0.00 0.00 78 1006.1